Date String (YYYY-MM-DD hh:mm:ss) UTC,Instrument flags,Ambient pressure (hPa),Sample flow (lpm),Bypass flow (lpm),Sample temperature (°C),Ambient temperature (°C),ASC tube jacket temperature (°C),LED temperature (°C),Box temperature (°C),Sample RH (%),Span deviation,Mass concentration (μg/m³),Mass concentration (μg/m³),Mass concentration (μg/m³)
DateTimeUTC,F1_M11,P_M11,Q1_M11,Q2_M11,T1_M11,T2_M11,T3_M11,T4_M11,T5_M11,U1_M11,ZSPAN_M11,X0_M11,X2_M11,X1_M11
2021-09-13 11:00:00,,0826.6,5.01,0.00,29.9,29.2,00.0,39.1,31.6,23.2,0000.0,0010.24,0004.90,0003.90
2021-09-13 11:01:00,,0826.6,4.99,0.00,29.9,29.2,00.0,39.1,31.6,23.3,0000.0,0010.26,0004.91,0003.91
2021-09-13 11:02:00,,0826.5,5.00,0.00,29.9,29.2,00.0,39.1,31.6,23.4,0000.0,0010.15,0004.89,0003.90
2021-09-13 11:03:00,,0826.5,5.00,0.00,29.9,29.2,00.0,39.1,31.6,23.3,0000.0,0010.10,0004.88,0003.88
2021-09-13 11:04:00,,0826.5,5.01,0.00,29.9,29.2,00.0,39.1,31.6,23.0,0000.0,0009.92,0004.81,0003.87
2021-09-13 11:05:00,,0826.5,5.00,0.00,29.9,29.2,00.0,39.1,31.6,23.1,0000.0,0009.56,0004.76,0003.85
2021-09-13 11:06:00,,0826.5,5.00,0.00,29.9,29.3,00.0,39.1,31.7,23.2,0000.0,0009.82,0004.79,0003.84
2021-09-13 11:07:00,,0826.5,4.99,0.00,30.0,29.3,00.0,39.1,31.7,22.2,0000.0,0009.57,0004.79,0003.83
2021-09-13 11:08:00,,0826.5,5.01,0.00,30.0,29.3,00.0,39.1,31.7,20.4,0000.0,0009.26,0004.75,0003.79
2021-09-13 11:09:00,,0826.5,5.01,0.00,30.0,29.3,00.0,39.1,31.7,20.0,0000.0,0009.32,0004.67,0003.73
2021-09-13 11:10:00,,0826.6,4.98,0.00,29.9,29.2,00.0,39.1,31.7,20.5,0000.0,0009.20,0004.60,0003.68
2021-09-13 11:11:00,,0826.6,5.02,0.00,29.9,29.2,00.0,39.1,31.6,21.9,0000.0,0009.14,0004.57,0003.65
2021-09-13 11:12:00,,0826.6,5.00,0.00,29.9,29.2,00.0,39.1,31.6,22.6,0000.0,0009.06,0004.53,0003.63
2021-09-13 11:13:00,,0826.7,4.99,0.00,29.9,29.2,00.0,39.1,31.6,22.4,0000.0,0009.04,0004.50,0003.62
2021-09-13 11:14:00,,0826.7,5.00,0.00,29.9,29.1,00.0,39.1,31.6,22.5,0000.0,0009.07,0004.50,0003.60
2021-09-13 11:15:00,,0826.7,5.01,0.00,29.9,29.1,00.0,39.1,31.6,22.7,0000.0,0009.35,0004.54,0003.58
2021-09-13 11:16:00,,0826.7,4.99,0.00,29.9,29.1,00.0,39.1,31.5,22.5,0000.0,0009.28,0004.53,0003.57
2021-09-13 11:17:00,,0826.6,5.00,0.00,29.9,29.1,00.0,39.1,31.5,22.4,0000.0,0008.78,0004.47,0003.56
2021-09-13 11:18:00,,0826.6,5.01,0.00,29.9,29.1,00.0,39.1,31.5,22.2,0000.0,0008.40,0004.38,0003.53
2021-09-13 11:19:00,,0826.5,4.99,0.00,29.9,29.1,00.0,39.1,31.5,22.0,0000.0,0008.27,0004.32,0003.53
2021-09-13 11:20:00,,0826.5,4.99,0.00,29.8,29.1,00.0,39.1,31.5,21.8,0000.0,0008.53,0004.34,0003.56
2021-09-13 11:21:00,,0826.5,5.00,0.00,29.8,29.1,00.0,39.1,31.5,21.7,0000.0,0008.53,0004.37,0003.58
2021-09-13 11:22:00,,0826.5,4.99,0.00,29.8,29.1,00.0,39.1,31.5,21.1,0000.0,0008.41,0004.34,0003.57
2021-09-13 11:23:00,,0826.5,5.00,0.00,29.8,29.1,00.0,39.1,31.5,21.2,0000.0,0008.30,0004.29,0003.55
2021-09-13 11:24:00,,0826.5,5.01,0.00,29.8,29.1,00.0,39.1,31.5,21.3,0000.0,0008.72,0004.29,0003.53
2021-09-13 11:25:00,,0826.5,5.00,0.00,29.8,29.1,00.0,39.1,31.5,21.2,0000.0,0009.24,0004.25,0003.50
2021-09-13 11:26:00,,0826.5,5.01,0.00,29.8,29.1,00.0,39.1,31.5,20.8,0000.0,0009.02,0004.18,0003.47
2021-09-13 11:27:00,,0826.5,5.00,0.00,29.8,29.1,00.0,39.0,31.5,21.0,0000.0,0009.10,0004.14,0003.43
2021-09-13 11:28:00,,0826.4,5.00,0.00,29.8,29.1,00.0,39.0,31.5,21.2,0000.0,0009.12,0004.12,0003.41
2021-09-13 11:29:00,,0826.4,5.00,0.00,29.8,29.1,00.0,39.0,31.6,21.4,0000.0,0009.22,0004.15,0003.41
2021-09-13 11:30:00,,0826.3,5.00,0.00,29.8,29.2,00.0,39.0,31.6,21.4,0000.0,0009.38,0004.18,0003.43
2021-09-13 11:31:00,,0826.2,5.00,0.00,29.9,29.2,00.0,39.0,31.6,21.5,0000.0,0009.27,0004.21,0003.45
2021-09-13 11:32:00,,0826.2,5.01,0.00,29.9,29.2,00.0,39.0,31.7,21.6,0000.0,0009.76,0004.28,0003.48
2021-09-13 11:33:00,,0826.3,5.00,0.00,29.9,29.2,00.0,39.0,31.7,21.6,0000.0,0010.02,0004.30,0003.51
2021-09-13 11:34:00,,0826.4,5.00,0.00,29.9,29.2,00.0,39.1,31.7,21.6,0000.0,0010.26,0004.37,0003.54
2021-09-13 11:35:00,,0826.4,5.00,0.00,29.9,29.3,00.0,39.1,31.7,21.5,0000.0,0009.99,0004.36,0003.56
2021-09-13 11:36:00,,0826.4,5.00,0.00,29.9,29.3,00.0,39.1,31.7,21.4,0000.0,0009.50,0004.40,0003.58
2021-09-13 11:37:00,,0826.3,4.99,0.00,29.9,29.3,00.0,39.1,31.7,21.4,0000.0,0009.90,0004.45,0003.61
2021-09-13 11:38:00,,0826.2,4.99,0.00,30.0,29.3,00.0,39.1,31.7,21.5,0000.0,0010.64,0004.49,0003.66
2021-09-13 11:39:00,,0826.2,4.99,0.00,30.0,29.3,00.0,39.1,31.7,21.6,0000.0,0010.86,0004.55,0003.69
2021-09-13 11:40:00,,0826.2,5.00,0.00,30.0,29.4,00.0,39.1,31.8,21.6,0000.0,0010.93,0004.59,0003.72
2021-09-13 11:41:00,,0826.4,5.01,0.00,30.1,29.3,00.0,39.1,31.8,21.6,0000.0,0011.03,0004.64,0003.75
2021-09-13 11:42:00,,0826.3,4.99,0.00,30.0,27.7,00.0,39.1,31.4,21.7,0000.0,0011.01,0004.65,0003.78
2021-09-13 11:43:00,,0826.2,4.99,0.00,29.8,25.7,00.0,39.0,30.9,21.7,0000.0,0011.54,0004.63,0003.77
2021-09-13 11:44:00,,0826.2,5.01,0.00,29.7,25.5,00.0,39.0,30.8,22.0,0000.0,0011.41,0004.66,0003.77
2021-09-13 11:45:00,,0826.2,5.00,0.00,29.5,25.9,00.0,38.9,30.8,22.6,0000.0,0011.39,0004.70,0003.78
2021-09-13 11:46:00,,0826.2,5.01,0.00,29.5,26.4,00.0,38.8,30.9,22.6,0000.0,0011.77,0004.72,0003.80
2021-09-13 11:47:00,,0826.1,5.00,0.00,29.5,26.9,00.0,38.8,30.9,22.5,0000.0,0012.14,0004.74,0003.82
2021-09-13 11:48:00,,0826.2,5.00,0.00,29.5,27.3,00.0,38.7,31.0,22.5,0000.4,0011.77,0004.75,0003.84
2021-09-13 11:49:00,,0826.2,5.00,0.00,29.5,27.6,00.0,38.7,31.1,22.5,0000.5,0011.02,0004.78,0003.85
2021-09-13 11:50:00,,0826.2,5.01,0.00,29.5,27.8,00.0,38.7,31.1,22.5,0000.0,0011.04,0004.75,0003.85
2021-09-13 11:51:00,,0826.4,4.99,0.00,29.5,28.0,00.0,38.7,31.2,22.5,0000.0,0011.20,0004.74,0003.84
2021-09-13 11:52:00,,0826.4,4.99,0.00,29.5,28.1,00.0,38.7,31.2,22.6,0000.0,0011.13,0004.73,0003.81
2021-09-13 11:53:00,,0826.5,5.01,0.00,29.5,28.2,00.0,38.7,31.2,22.6,0000.0,0010.93,0004.71,0003.80
2021-09-13 11:54:00,,0826.4,4.99,0.00,29.5,28.3,00.0,38.7,31.2,22.6,0000.0,0009.99,0004.72,0003.82
2021-09-13 11:55:00,,0826.3,5.01,0.00,29.5,28.4,00.0,38.7,31.2,22.5,0000.0,0009.80,0004.71,0003.84
2021-09-13 11:56:00,,0826.2,4.99,0.00,29.5,28.5,00.0,38.7,31.3,22.5,0000.0,0009.95,0004.74,0003.85
2021-09-13 11:57:00,,0826.1,5.01,0.00,29.6,28.6,00.0,38.7,31.3,22.8,0000.0,0009.96,0004.77,0003.86
2021-09-13 11:58:00,,0826.2,5.00,0.00,29.6,28.7,00.0,38.7,31.4,22.8,0000.0,0009.58,0004.80,0003.88
2021-09-13 11:59:00,,0826.2,4.99,0.00,29.6,28.7,00.0,38.7,31.4,22.7,0000.0,0009.42,0004.76,0003.88
